Orbital Elements
Epoch 2014 Jan. 23.0 TT = JDT 2456680.5
T 2014 Jan. 14.88118 TT Rudenko
q 1.4667193 (2000.0) P Q
n 0.15456046 Peri. 353.20862 +0.99939774 -0.03449245
a 3.4387752 Node 8.77074 +0.03289396 +0.90681902
e 0.5734762 Incl. 1.42699 +0.01105151 +0.42010659
P 6.38
From 210 observations 2007 Sept. 10-2020 Oct. 20, mean residual 0".7.
|